This demonstration page uses our WeatherBlox Daily Observations layout. Learn more.

Left ArrowRight Arrow

39.92423, -83.80882

Hourly Observations for May 23, 2022

Temp ( °F °C ) Dew Point ( °F °C ) Humidity (%) Winds ( mph kmh ) Pressure ( in mb ) Visibility ( mi km ) Precip ( " mm )
12:56 am 00:56 Clear 53 11.7 39 3.9 59 59 N 9 15 30.32 1027 10 16 0.00 0.00
1:56 am 01:56 Clear 52 11.1 39 3.9 61 61 N 9 15 30.32 1027 10 16 0.00 0.00
2:56 am 02:56 Clear 51 10.6 39 3.9 64 64 N 8 13 30.30 1026 10 16 0.00 0.00
3:56 am 03:56 Clear 50 10 40 4.4 68 68 N 8 13 30.29 1026 10 16 0.00 0.00
4:56 am 04:56 Clear 48 8.9 40 4.4 74 74 N 7 11 30.29 1026 10 16 0.00 0.00
5:56 am 05:56 Clear 48 8.9 41 5 77 77 N 7 11 30.29 1026 10 16 0.00 0.00
6:56 am 06:56 Sunny 48 8.9 41 5 77 77 N 8 13 30.30 1026 10 16 0.00 0.00
7:56 am 07:56 Sunny 49 9.4 41 5 74 74 N 8 13 30.31 1026 10 16 0.00 0.00
8:56 am 08:56 Sunny 51 10.6 42 5.6 71 71 N 8 13 30.31 1026 10 16 0.00 0.00
9:56 am 09:56 Sunny 54 12.2 45 7.2 72 72 NNE 9 15 30.31 1027 10 16 0.00 0.00
10:56 am 10:56 Sunny 57 13.9 47 8.3 69 69 NE 9 15 30.29 1026 10 16 0.00 0.00
11:56 am 11:56 Mostly Cloudy 60 15.6 50 10 70 70 NE 8 13 30.27 1025 10 16 0.00 0.00
12:56 pm 12:56 Partly Cloudy 62 16.7 51 10.6 67 67 NE 9 15 30.26 1025 10 16 0.00 0.00
1:56 pm 13:56 Cloudy 62 16.7 52 11.1 70 70 E 12 19 30.24 1024 10 16 0.00 0.00
2:56 pm 14:56 Cloudy 63 17.2 52 11.1 68 68 ENE 8 13 30.23 1024 10 16 0.00 0.00
3:56 pm 15:56 Cloudy 64 17.8 52 11.1 65 65 E 9 15 30.22 1023 10 16 0.00 0.00
4:56 pm 16:56 Cloudy 63 17.2 52 11.1 68 68 ENE 6 9 30.21 1023 10 16 0.00 0.00
5:56 pm 17:56 Mostly Cloudy 64 17.8 51 10.6 63 63 E 9 15 30.19 1022 10 16 0.00 0.00
6:56 pm 18:56 Cloudy 64 17.8 51 10.6 63 63 E 10 17 30.19 1022 10 16 0.00 0.00
7:56 pm 19:56 Cloudy 63 17.2 52 11.1 68 68 ESE 7 11 30.19 1022 10 16 0.00 0.00
8:56 pm 20:56 Cloudy 59 15 54 12.2 83 83 ESE 5 7 30.21 1023 10 16 0.00 0.00
9:56 pm 21:56 Partly Cloudy 57 13.9 56 13.3 96 96 N 7 11 30.21 1023 10 16 0.00 0.00
10:56 pm 22:56 Mostly Cloudy 55 12.8 55 12.8 100 100 NE 10 17 30.22 1023 10 16 0.00 0.00
11:56 pm 23:56 Clear 53 11.7 50 10 89 89 NE 9 15 30.21 1023 10 16 0.00 0.00

Powered by AerisWeather